Location: G�migny
(47.9646°N, 1.6950°E)
Time: 07:07:50
(UTC+00:00)

STARLINK-77 - Pass Details

Date: 23 October 2019
Orbit: 548 x 551 km, 53.0° (Epoch: 19 November)

Event Time Altitude Azimuth Distance (km) Brightness Sun altitude
Rises 17:32:28 0° 282° (WNW) 2,718 8.7 -7.7°
Reaches altitude 10° 17:34:48 10° 290° (WNW) 1,824 7.4 -8.0°
Maximum altitude 17:38:43 40° 1° (N) 819 4.4 -8.7°
Enters shadow 17:42:19 12° 70° (ENE) 1,705 5.5 -9.3°
